TimeCDT,TemperatureF,Dew PointF,Humidity,Sea Level PressureIn,VisibilityMPH,Wind Direction,Wind SpeedMPH,Gust SpeedMPH,PrecipitationIn,Events,Conditions,WindDirDegrees,DateUTC
12:15 AM,51.8,46.4,82,29.95,10.0,NNW,5.8,-,N/A,,Clear,330,2013-07-20 05:15:00
12:34 AM,50.0,44.6,82,29.95,10.0,NNW,6.9,-,N/A,,Clear,330,2013-07-20 05:34:00
12:54 AM,50.0,44.6,82,29.96,10.0,NW,6.9,-,N/A,,Clear,320,2013-07-20 05:54:00
1:14 AM,48.2,44.6,87,29.96,10.0,NNW,6.9,-,N/A,,Clear,330,2013-07-20 06:14:00
1:34 AM,48.2,44.6,87,29.96,10.0,NNW,5.8,-,N/A,,Clear,330,2013-07-20 06:34:00
1:54 AM,50.0,44.6,82,29.96,10.0,NNW,4.6,-,N/A,,Clear,340,2013-07-20 06:54:00
2:14 AM,48.2,44.6,87,29.96,10.0,NNW,3.5,-,N/A,,Clear,340,2013-07-20 07:14:00
2:34 AM,48.2,42.8,82,29.97,10.0,NNW,4.6,-,N/A,,Clear,330,2013-07-20 07:34:00
2:54 AM,48.2,42.8,82,29.97,10.0,NNW,3.5,-,N/A,,Clear,330,2013-07-20 07:54:00
3:14 AM,48.2,42.8,82,29.97,10.0,North,3.5,-,N/A,,Clear,360,2013-07-20 08:14:00
3:34 AM,48.2,42.8,82,29.97,10.0,North,4.6,-,N/A,,Clear,360,2013-07-20 08:34:00
3:54 AM,48.2,44.6,87,29.97,10.0,North,4.6,-,N/A,,Clear,10,2013-07-20 08:54:00
4:14 AM,48.2,44.6,87,29.98,10.0,NNE,6.9,-,N/A,,Clear,20,2013-07-20 09:14:00
4:34 AM,48.2,42.8,82,29.99,10.0,NNE,4.6,-,N/A,,Clear,20,2013-07-20 09:34:00
4:54 AM,46.4,42.8,87,29.99,10.0,North,4.6,-,N/A,,Clear,10,2013-07-20 09:54:00
5:14 AM,46.4,42.8,87,29.99,10.0,NNE,5.8,-,N/A,,Clear,20,2013-07-20 10:14:00
5:34 AM,46.4,41.0,81,29.99,10.0,North,6.9,-,N/A,,Clear,10,2013-07-20 10:34:00
5:54 AM,46.4,42.8,87,30.00,10.0,North,4.6,-,N/A,,Clear,360,2013-07-20 10:54:00
6:14 AM,46.4,42.8,87,30.01,10.0,Calm,Calm,-,N/A,,Clear,0,2013-07-20 11:14:00
6:35 AM,46.4,42.8,87,30.02,10.0,North,4.6,-,N/A,,Clear,350,2013-07-20 11:35:00
6:54 AM,48.2,42.8,82,30.03,10.0,North,4.6,-,N/A,,Clear,360,2013-07-20 11:54:00
7:14 AM,48.2,44.6,87,30.03,10.0,North,3.5,-,N/A,,Clear,10,2013-07-20 12:14:00
7:35 AM,51.8,46.4,82,30.04,10.0,North,4.6,-,N/A,,Clear,10,2013-07-20 12:35:00
7:54 AM,51.8,46.4,82,30.04,10.0,North,5.8,-,N/A,,Clear,10,2013-07-20 12:54:00
8:14 AM,53.6,48.2,82,30.05,10.0,NNE,6.9,-,N/A,,Clear,30,2013-07-20 13:14:00
8:35 AM,55.4,48.2,77,30.05,10.0,NNE,6.9,-,N/A,,Clear,30,2013-07-20 13:35:00
8:54 AM,57.2,50.0,77,30.06,10.0,NNE,4.6,-,N/A,,Clear,30,2013-07-20 13:54:00
9:14 AM,57.2,50.0,77,30.06,10.0,NE,5.8,-,N/A,,Clear,40,2013-07-20 14:14:00
9:35 AM,59.0,51.8,77,30.06,10.0,NNE,5.8,-,N/A,,Clear,30,2013-07-20 14:35:00
9:54 AM,60.8,51.8,72,30.06,10.0,ENE,4.6,-,N/A,,Scattered Clouds,60,2013-07-20 14:54:00
10:14 AM,60.8,51.8,72,30.06,10.0,Calm,Calm,-,N/A,,Scattered Clouds,0,2013-07-20 15:14:00
10:35 AM,60.8,50.0,68,30.06,10.0,Calm,Calm,-,N/A,,Scattered Clouds,0,2013-07-20 15:35:00
10:54 AM,60.8,48.2,63,30.06,10.0,Calm,Calm,-,N/A,,Scattered Clouds,0,2013-07-20 15:54:00
11:14 AM,62.6,48.2,59,30.06,10.0,NW,4.6,-,N/A,,Scattered Clouds,310,2013-07-20 16:14:00
11:35 AM,62.6,48.2,59,30.06,10.0,North,4.6,-,N/A,,Scattered Clouds,10,2013-07-20 16:35:00
11:54 AM,60.8,48.2,63,30.06,10.0,Calm,Calm,-,N/A,,Scattered Clouds,0,2013-07-20 16:54:00
12:14 PM,62.6,51.8,68,30.05,10.0,Calm,Calm,-,N/A,,Mostly Cloudy,0,2013-07-20 17:14:00
12:35 PM,64.4,51.8,64,30.05,10.0,ENE,3.5,-,N/A,,Scattered Clouds,60,2013-07-20 17:35:00
12:54 PM,62.6,48.2,59,30.05,10.0,Calm,Calm,-,N/A,,Scattered Clouds,0,2013-07-20 17:54:00
1:14 PM,62.6,51.8,68,30.05,10.0,ENE,4.6,-,N/A,,Mostly Cloudy,60,2013-07-20 18:14:00
1:35 PM,64.4,48.2,56,30.04,10.0,Calm,Calm,-,N/A,,Scattered Clouds,0,2013-07-20 18:35:00
1:54 PM,64.4,51.8,64,30.04,10.0,NE,5.8,-,N/A,,Clear,50,2013-07-20 18:54:00
2:14 PM,64.4,51.8,64,30.03,10.0,NE,4.6,-,N/A,,Mostly Cloudy,50,2013-07-20 19:14:00
2:34 PM,66.2,53.6,64,30.03,10.0,ENE,5.8,-,N/A,,Scattered Clouds,60,2013-07-20 19:34:00
2:54 PM,66.2,51.8,60,30.02,10.0,NE,5.8,-,N/A,,Scattered Clouds,50,2013-07-20 19:54:00
3:14 PM,68.0,51.8,56,30.02,10.0,ENE,9.2,-,N/A,,Scattered Clouds,70,2013-07-20 20:14:00
3:34 PM,66.2,51.8,60,30.02,10.0,East,4.6,-,N/A,,Mostly Cloudy,80,2013-07-20 20:34:00
3:54 PM,66.2,50.0,56,30.02,10.0,East,4.6,-,N/A,,Scattered Clouds,80,2013-07-20 20:54:00
4:14 PM,68.0,53.6,60,30.02,10.0,East,10.4,-,N/A,,Scattered Clouds,80,2013-07-20 21:14:00
4:34 PM,68.0,53.6,60,30.02,10.0,East,6.9,-,N/A,,Scattered Clouds,80,2013-07-20 21:34:00
4:54 PM,68.0,53.6,60,30.01,10.0,East,11.5,16.1,N/A,,Scattered Clouds,100,2013-07-20 21:54:00
5:14 PM,66.2,53.6,64,30.02,10.0,East,9.2,-,N/A,,Clear,80,2013-07-20 22:14:00
5:34 PM,66.2,53.6,64,30.02,10.0,ENE,8.1,-,N/A,,Clear,70,2013-07-20 22:34:00
5:54 PM,64.4,53.6,68,30.01,10.0,East,9.2,-,N/A,,Clear,80,2013-07-20 22:54:00
6:14 PM,64.4,51.8,64,30.01,10.0,East,8.1,-,N/A,,Clear,80,2013-07-20 23:14:00
6:34 PM,66.2,53.6,64,30.01,10.0,ENE,9.2,-,N/A,,Clear,70,2013-07-20 23:34:00
6:54 PM,64.4,51.8,64,30.01,10.0,East,8.1,-,N/A,,Clear,90,2013-07-20 23:54:00
7:14 PM,62.6,51.8,68,30.01,10.0,East,6.9,-,N/A,,Clear,90,2013-07-21 00:14:00
7:34 PM,64.4,51.8,64,30.01,10.0,East,5.8,-,N/A,,Clear,80,2013-07-21 00:34:00
7:54 PM,62.6,51.8,68,30.00,10.0,East,4.6,-,N/A,,Clear,90,2013-07-21 00:54:00
8:14 PM,62.6,51.8,68,30.00,10.0,East,4.6,-,N/A,,Clear,90,2013-07-21 01:14:00
8:34 PM,60.8,51.8,72,30.00,10.0,East,4.6,-,N/A,,Clear,100,2013-07-21 01:34:00
8:54 PM,59.0,51.8,77,30.00,10.0,East,3.5,-,N/A,,Clear,90,2013-07-21 01:54:00
9:15 PM,57.2,51.8,82,30.00,10.0,East,4.6,-,N/A,,Clear,90,2013-07-21 02:15:00
9:34 PM,57.2,51.8,82,30.00,10.0,East,5.8,-,N/A,,Mostly Cloudy,90,2013-07-21 02:34:00
9:54 PM,55.4,50.0,82,30.00,10.0,East,5.8,-,N/A,,Scattered Clouds,90,2013-07-21 02:54:00
10:15 PM,53.6,48.2,82,30.01,10.0,Calm,Calm,-,N/A,,Clear,0,2013-07-21 03:15:00
10:34 PM,55.4,48.2,77,30.01,10.0,East,3.5,-,N/A,,Clear,80,2013-07-21 03:34:00
10:54 PM,51.8,46.4,82,30.01,10.0,ENE,3.5,-,N/A,,Clear,60,2013-07-21 03:54:00
11:15 PM,51.8,46.4,82,30.01,10.0,Calm,Calm,-,N/A,,Clear,0,2013-07-21 04:15:00
11:34 PM,51.8,46.4,82,30.01,10.0,Calm,Calm,-,N/A,,Clear,0,2013-07-21 04:34:00
11:55 PM,50.0,44.6,82,30.01,10.0,Calm,Calm,-,N/A,,Clear,0,2013-07-21 04:55:00